星链-31827 (STARLINK-31827 )

导读

STARLINK-31827是美国SpaceX星链(Starlink)卫星互联网项目的第二代低轨卫星,于2024年5月10日由猎鹰9号火箭发射入轨。它运行在近地轨道,属于Starlink Gen2星座,配备先进通信设备,部分星链该批次卫星支持直连手机功能,旨在为全球提供高速低延迟宽带互联网服务,扩充星链星座容量,提升全球网络覆盖与连接稳定性,助力偏远地区网络接入。

Basic Information
目录编号:
59727
目录名称:
STARLINK-31827
国际标识:
2024-088V
轨道中心:
EARTH
卫星名称:
星链-31827
卫星全名:
星链-31827 (STARLINK-31827 )
卫星状态:
在轨 (已飞行847 天)
发射日期:
2024-05-10 UTC
国别 :
美国 (US)
星等 :
--
Orbit Information
数据来源 国际轨道数据
星历时间: 2026-09-03T17:43:25+0800
20小时前
查看轨道信息
半长轴: 6848.876km
偏心率: 0.0001218
轨道倾角: 53.161°
近地点辐角 110.078°
升交点赤经 33.555°
平近点角 250.035°
近地点: 469.904km
远地点: 471.574km
周期: 94.013分钟
每日圈数: 15.317005
Detailed Information
固有亮度:
5
最大亮度:
1.5
卫星平台:
Starlink v2.0 mini
覆盖范围:
全球
运营商:
太空探索技术公司
运营商所在国:
美国
制造商(研发单位):
太空探索技术公司
制造商所在国:
美国
使用方式:
暂无
Satellite Introduction
星链(Starlink)计划是由太空探索技术公司(SpaceX)提出的一个巨型低轨卫星互联网星座项目,计划在2019年至2024年间在太空搭建由约1.2万颗卫星组成的“星链”网络,其中1584颗将部署在地球上空550千米处的近地轨道,并从2020年开始工作。该卫星仍在工作。
2D Orbit Map
3D Orbit Map
Orbit Altitude Analysis Chart
Orbit Inclination Analysis Chart
Orbit Comprehensive Analysis Chart
View Comprehensive Chart
Conjunction Data List
Event ID Objects TCA Miss Dist (km) Collision Risk Probability Collision Risk Index (CRI) Action
CDM_260903-184705-316005-972721
2026-09-03T
18:47:42+0000
1.699 km
极远距离
2.278483E-6 低风险 0.42
CDM_260904-115505-972706-867321
2026-09-04T
11:55:32+0000
2.765 km
极远距离
1.263921E-6 低风险 0.37
CDM_260903-054605-972706-838022
2026-09-03T
05:46:57+0000
2.696 km
极远距离
9.019142E-7 极低风险 0.34